, AK

(GMT )
Eureka

Weather History for PAZK - October, 2012

Change the Weather History Date:

Thursday, October 4, 2012

  Actual Average Record
Temperature  
Mean Temperature 39 °F -  
Max Temperature 48 °F 32 °F 50 °F (2001)
Min Temperature 30 °F 23 °F 15 °F (1996)
Degree Days  
Heating Degree Days 26    
Moisture  
Dew Point 31 °F    
Average Humidity 79    
Maximum Humidity 100    
Minimum Humidity 53    
Precipitation  
Precipitation 0.00 in - - ()
Sea Level Pressure  
Sea Level Pressure 30.04 in    
Wind  
Wind Speed 1 mph (West)    
Max Wind Speed 9 mph    
Max Gust Speed -    
Visibility 10 miles    
Events      
Averages and records for this station are not official NWS values.
T = Trace of Precipitation, MM = Missing Value Source: NWS Daily Summary

Daily Weather History Graph

Daily Weather History Graph

Search for Another Location

Airport or City:

Trip Planner

Search our weather history database for the weather conditions in past years. The results will help you decide how hot, cold, wet, or windy it might be!

Date:

Astronomy

Oct. 04, 2012 Rise Set
Actual Time 8:05 AM AKDT 7:07 PM AKDT
Civil Twilight 7:21 AM AKDT 7:51 PM AKDT
Nautical Twilight 6:29 AM AKDT 8:42 PM AKDT
Astronomical Twilight 5:35 AM AKDT 9:36 PM AKDT
Moon 8:20 PM AKDT (10/4) 2:00 PM AKDT (10/4)
Length of Visible Light 12h 30m
Length of Day
11h 02m
Waning Gibbous, 81% of the Moon is Illuminated
Oct 4
Waning Gibbous
Oct 7
Last Quarter
Oct 15
New
Oct 21
First Quarter
Oct 29
Full

Hourly Weather History & Observations

Time (AKDT) Temp. Windchill Dew Point Humidity Pressure Visibility Wind Dir Wind Speed Gust Speed Precip Events Conditions
12:16 AM 33.8 °F - 28.4 °F 81% 30.09 in 10.0 mi Calm Calm - N/A   Mostly Cloudy
12:36 AM 32.0 °F - 26.6 °F 80% 30.09 in 10.0 mi Calm Calm - N/A   Scattered Clouds
12:56 AM 32.0 °F - 28.4 °F 87% 30.08 in 10.0 mi Calm Calm - N/A   Mostly Cloudy
1:16 AM 32.0 °F 28.7 °F 28.4 °F 87% 30.08 in 10.0 mi West 3.5 mph - N/A   Overcast
1:36 AM 32.0 °F - 26.6 °F 80% 30.07 in 10.0 mi Calm Calm - N/A   Overcast
1:56 AM 32.0 °F - 26.6 °F 80% 30.07 in 10.0 mi Calm Calm - N/A   Overcast
2:16 AM 32.0 °F - 26.6 °F 80% 30.06 in 10.0 mi Calm Calm - N/A   Scattered Clouds
2:36 AM 30.2 °F - 26.6 °F 86% 30.06 in 10.0 mi Calm Calm - N/A   Partly Cloudy
2:56 AM 32.0 °F - 28.4 °F 87% 30.06 in 10.0 mi Calm Calm - N/A   Clear
3:16 AM 30.2 °F - 28.4 °F 93% 30.06 in 10.0 mi Calm Calm - N/A   Clear
3:36 AM 30.2 °F - 28.4 °F 93% 30.05 in 10.0 mi Calm Calm - N/A   Clear
3:56 AM 30.2 °F - 28.4 °F 93% 30.04 in 10.0 mi Calm Calm - N/A   Clear
4:16 AM 30.2 °F 26.7 °F 26.6 °F 86% 30.05 in 10.0 mi South 3.5 mph - N/A   Clear
4:36 AM 30.2 °F 26.7 °F 28.4 °F 93% 30.05 in 10.0 mi NW 3.5 mph - N/A   Clear
4:56 AM 30.2 °F - 26.6 °F 86% 30.05 in 10.0 mi Calm Calm - N/A   Clear
5:16 AM 30.2 °F - 28.4 °F 93% 30.05 in 10.0 mi Calm Calm - N/A   Scattered Clouds
5:36 AM 30.2 °F - 26.6 °F 86% 30.03 in 10.0 mi Calm Calm - N/A   Scattered Clouds
5:56 AM 30.2 °F - 28.4 °F 93% 30.03 in 10.0 mi Calm Calm - N/A   Clear
6:16 AM 30.2 °F - 28.4 °F 93% 30.03 in 10.0 mi Calm Calm - N/A   Clear
6:36 AM 30.2 °F - 28.4 °F 93% 30.03 in 10.0 mi Calm Calm - N/A   Clear
6:56 AM 30.2 °F 26.7 °F 28.4 °F 93% 30.03 in 10.0 mi West 3.5 mph - N/A   Clear
7:16 AM 30.2 °F 24.3 °F 30.2 °F 100% 30.02 in 10.0 mi West 5.8 mph - N/A   Clear
7:36 AM 30.2 °F 26.7 °F 28.4 °F 93% 30.01 in 10.0 mi West 3.5 mph - N/A   Clear
7:56 AM 30.2 °F - 28.4 °F 93% 30.01 in 10.0 mi Calm Calm - N/A   Clear
8:16 AM 30.2 °F 26.7 °F 28.4 °F 93% 30.00 in 10.0 mi NNW 3.5 mph - N/A   Clear
8:36 AM 30.2 °F 25.4 °F 30.2 °F 100% 29.99 in 10.0 mi NNE 4.6 mph - N/A   Clear
8:56 AM 32.0 °F - 28.4 °F 87% 30.00 in 10.0 mi Calm Calm - N/A   Clear
9:16 AM 32.0 °F 26.4 °F 28.4 °F 87% 30.01 in 10.0 mi WSW 5.8 mph - N/A   Clear
9:36 AM 32.0 °F 27.5 °F 30.2 °F 93% 30.02 in 10.0 mi SSW 4.6 mph - N/A   Clear
9:56 AM 33.8 °F 30.8 °F 30.2 °F 87% 30.01 in 10.0 mi West 3.5 mph - N/A   Clear
10:16 AM 35.6 °F 32.8 °F 30.2 °F 81% 30.03 in 10.0 mi SSW 3.5 mph - N/A   Partly Cloudy
10:36 AM 35.6 °F 32.8 °F 30.2 °F 81% 30.03 in 10.0 mi WSW 3.5 mph - N/A   Mostly Cloudy
10:56 AM 35.6 °F - 32.0 °F 87% 30.01 in 10.0 mi Calm Calm - N/A   Overcast
11:16 AM 37.4 °F - 32.0 °F 81% 30.02 in 10.0 mi Calm Calm - N/A   Overcast
11:56 AM 39.2 °F - 32.0 °F 75% 30.02 in 10.0 mi Calm Calm - N/A   Overcast
12:16 PM 39.2 °F - 33.8 °F 81% 30.02 in 10.0 mi Calm Calm - N/A   Overcast
12:36 PM 41.0 °F - 33.8 °F 76% 30.02 in 10.0 mi Calm Calm - N/A   Mostly Cloudy
12:56 PM 44.6 °F 42.2 °F 33.8 °F 66% 30.02 in 10.0 mi NW 4.6 mph - N/A   Overcast
1:16 PM 46.4 °F - 30.2 °F 53% 30.02 in 10.0 mi Calm Calm - N/A   Mostly Cloudy
1:36 PM 48.2 °F - 33.8 °F 58% 30.02 in 10.0 mi Calm Calm - N/A   Clear
1:56 PM 48.2 °F - 32.0 °F 54% 30.02 in 10.0 mi SSE 4.6 mph - N/A   Clear
2:16 PM 48.2 °F - 32.0 °F 54% 30.03 in 10.0 mi Calm Calm - N/A   Partly Cloudy
2:36 PM 48.2 °F - 33.8 °F 58% 30.03 in 10.0 mi Calm Calm - N/A   Scattered Clouds
2:56 PM 48.2 °F - 33.8 °F 58% 30.03 in 10.0 mi Calm Calm - N/A   Clear
3:16 PM 48.2 °F - 33.8 °F 58% 30.03 in 10.0 mi SSW 3.5 mph - N/A   Clear
3:36 PM 48.2 °F - 33.8 °F 58% 30.02 in 10.0 mi West 5.8 mph - N/A   Clear
3:56 PM 48.2 °F - 33.8 °F 58% 30.01 in 10.0 mi Calm Calm - N/A   Clear
4:16 PM 48.2 °F - 35.6 °F 62% 30.01 in 10.0 mi Calm Calm - N/A   Clear
4:36 PM 48.2 °F - 35.6 °F 62% 30.02 in 10.0 mi West 3.5 mph - N/A   Clear
4:56 PM 48.2 °F - 33.8 °F 58% 30.01 in 10.0 mi Calm Calm - N/A   Clear
5:16 PM 46.4 °F - 35.6 °F 66% 30.01 in 10.0 mi Calm Calm - N/A   Clear
5:36 PM 46.4 °F 45.2 °F 33.8 °F 62% 30.01 in 10.0 mi SSE 3.5 mph - N/A   Clear
5:56 PM 44.6 °F - 33.8 °F 66% 30.01 in 10.0 mi Calm Calm - N/A   Clear
6:16 PM 44.6 °F - 33.8 °F 66% 30.02 in 10.0 mi Calm Calm - N/A   Clear
6:36 PM 42.8 °F 40.1 °F 33.8 °F 70% 30.02 in 10.0 mi WSW 4.6 mph - N/A   Clear
6:56 PM 44.6 °F 40.7 °F 33.8 °F 66% 30.03 in 10.0 mi WSW 6.9 mph - N/A   Partly Cloudy
7:16 PM 42.8 °F 40.1 °F 33.8 °F 70% 30.03 in 10.0 mi West 4.6 mph - N/A   Mostly Cloudy
7:36 PM 42.8 °F 37.5 °F 32.0 °F 66% 30.03 in 10.0 mi WNW 9.2 mph - N/A   Scattered Clouds
7:56 PM 41.0 °F 37.1 °F 33.8 °F 76% 30.05 in 10.0 mi WNW 5.8 mph - N/A   Clear
8:16 PM 42.8 °F - 35.6 °F 76% 30.05 in 10.0 mi Calm Calm - N/A   Clear
8:36 PM 39.2 °F 37.0 °F 33.8 °F 81% 30.05 in 10.0 mi North 3.5 mph - N/A   Clear
8:56 PM 39.2 °F 35.0 °F 33.8 °F 81% 30.05 in 10.0 mi North 5.8 mph - N/A   Clear
9:16 PM 39.2 °F 35.9 °F 33.8 °F 81% 30.05 in 10.0 mi East 4.6 mph - N/A   Clear
9:36 PM 39.2 °F 37.0 °F 33.8 °F 81% 30.06 in 10.0 mi ESE 3.5 mph - N/A   Clear
9:56 PM 39.2 °F 35.9 °F 33.8 °F 81% 30.06 in 10.0 mi NW 4.6 mph - N/A   Clear
10:16 PM 39.2 °F 37.0 °F 33.8 °F 81% 30.07 in 10.0 mi West 3.5 mph - N/A   Clear
10:36 PM 37.4 °F - 33.8 °F 87% 30.07 in 10.0 mi Calm Calm - N/A   Clear
10:56 PM 37.4 °F - 35.6 °F 93% 30.08 in 10.0 mi Calm Calm - N/A   Clear
11:16 PM 39.2 °F 37.0 °F 33.8 °F 81% 30.08 in 10.0 mi NW 3.5 mph - N/A   Clear
11:36 PM 39.2 °F - 33.8 °F 81% 30.09 in 10.0 mi Calm Calm - N/A   Clear
11:56 PM 39.2 °F - 33.8 °F 81% 30.09 in 10.0 mi Calm Calm - N/A   Clear